timestamp,surface_pressure_avg,surface_temp_avg,battery_voltage,lat,long
2021-05-09 00:09:01+00:00,327.8613,5.3,12.97,47.84626,-54.09684
2021-05-09 00:19:01+00:00,319.858,5.2,12.73,47.84626,-54.09684
2021-05-09 00:29:01+00:00,310.1847,5.2,12.73,47.84626,-54.09684
2021-05-09 00:39:01+00:00,290.918,5.17,12.73,47.84626,-54.09684
2021-05-09 00:49:01+00:00,279.4881,5.13,12.73,47.84626,-54.09684
2021-05-09 00:59:01+00:00,288.5281,5.09,12.73,47.84626,-54.09684
2021-05-09 01:09:01+00:00,282.6563,5.22,12.73,47.84626,-54.09684
2021-05-09 01:19:01+00:00,263.1364,5.5,12.65,47.84626,-54.09684
2021-05-09 01:29:01+00:00,254.778,5.5,12.65,47.84626,-54.09684
2021-05-09 01:39:01+00:00,262.3414,5.5,12.65,47.84626,-54.09684
2021-05-09 01:49:01+00:00,255.7864,5.4,12.65,47.84626,-54.09684
2021-05-09 01:59:01+00:00,247.9014,5.4,12.65,47.84626,-54.09684
2021-05-09 02:09:01+00:00,233.9214,5.4,12.65,47.84626,-54.09684
2021-05-09 02:19:00+00:00,227.9298,5.4,12.65,47.84626,-54.09684
2021-05-09 02:29:00+00:00,226.9681,5.39,12.65,47.84626,-54.09684
2021-05-09 02:39:00+00:00,225.2064,5.34,12.65,47.84626,-54.09684
2021-05-09 02:49:00+00:00,212.7498,5.5,12.65,47.84626,-54.09684
2021-05-09 02:59:00+00:00,213.6148,5.6,12.65,47.84626,-54.09684
2021-05-09 03:09:00+00:00,219.5997,5.6,12.65,47.84626,-54.09684
2021-05-09 03:19:01+00:00,207.5615,5.6,12.65,47.84626,-54.09684
2021-05-09 03:29:01+00:00,199.3781,5.6,12.65,47.84626,-54.09684
2021-05-09 03:39:01+00:00,198.4998,5.6,12.65,47.84626,-54.09684
2021-05-09 03:49:01+00:00,195.1414,5.6,12.65,47.84626,-54.09684
2021-05-09 03:59:01+00:00,192.9948,5.59,12.65,47.84626,-54.09684
2021-05-09 04:09:01+00:00,196.2664,5.58,12.65,47.84626,-54.09684
2021-05-09 04:19:00+00:00,202.3098,5.6,12.65,47.84626,-54.09684
2021-05-09 04:29:00+00:00,201.7081,5.6,12.65,47.84626,-54.09684
2021-05-09 04:39:00+00:00,199.3164,5.6,12.65,47.84626,-54.09684
2021-05-09 04:49:00+00:00,198.9298,5.59,12.65,47.84626,-54.09684
2021-05-09 04:59:00+00:00,201.7114,5.59,12.65,47.84626,-54.09684
2021-05-09 05:09:00+00:00,207.3398,5.59,12.65,47.84626,-54.09684
2021-05-09 05:19:00+00:00,209.9664,5.58,12.65,47.84626,-54.09684
2021-05-09 05:29:00+00:00,218.7698,5.54,12.65,47.84626,-54.09684
2021-05-09 05:39:00+00:00,225.5397,5.5,12.65,47.84626,-54.09684
2021-05-09 05:49:00+00:00,221.6764,5.5,12.65,47.84626,-54.09684
2021-05-09 05:59:00+00:00,226.8164,5.5,12.65,47.84626,-54.09684
2021-05-09 06:09:00+00:00,230.7881,5.5,12.65,47.84626,-54.09684
2021-05-09 06:19:01+00:00,233.4131,5.5,12.57,47.84626,-54.09684
2021-05-09 06:29:01+00:00,237.1731,5.5,12.57,47.84626,-54.09684
2021-05-09 06:39:01+00:00,243.4781,5.5,12.57,47.84626,-54.09684
2021-05-09 06:49:01+00:00,242.1247,5.5,12.57,47.84626,-54.09684
2021-05-09 06:59:01+00:00,242.9681,5.5,12.57,47.84626,-54.09684
2021-05-09 07:09:01+00:00,249.7997,5.5,12.57,47.84626,-54.09684
2021-05-09 07:19:00+00:00,257.1181,5.36,12.57,47.84626,-54.09684
2021-05-09 07:29:00+00:00,260.1764,5.28,12.57,47.84626,-54.09684
2021-05-09 07:39:00+00:00,264.1898,5.4,12.57,47.84626,-54.09684
2021-05-09 07:49:00+00:00,272.723,5.07,12.57,47.84626,-54.09684
2021-05-09 07:59:00+00:00,281.7481,4.9,12.57,47.84626,-54.09684
2021-05-09 08:09:00+00:00,285.4847,4.9,12.57,47.84626,-54.09684
2021-05-09 08:19:01+00:00,291.0681,4.9,12.57,47.84626,-54.09684
2021-05-09 08:29:01+00:00,296.8163,4.9,12.57,47.84626,-54.09684
2021-05-09 08:39:01+00:00,305.748,4.9,12.57,47.84626,-54.09684
2021-05-09 08:49:01+00:00,304.8063,4.95,12.57,47.84626,-54.09684
2021-05-09 08:59:01+00:00,307.7897,5.0,12.57,47.84626,-54.09684
2021-05-09 09:09:01+00:00,314.488,5.0,12.57,47.84626,-54.09684
2021-05-09 09:19:00+00:00,319.8746,5.0,12.57,47.84626,-54.09684
2021-05-09 09:29:00+00:00,321.4997,5.06,12.57,47.84626,-54.09684
2021-05-09 09:39:00+00:00,327.3513,4.96,12.57,47.84626,-54.09684
2021-05-09 09:49:00+00:00,333.9496,4.8,12.57,47.84626,-54.09684
2021-05-09 09:59:00+00:00,332.8279,4.83,12.57,47.84626,-54.09684
2021-05-09 10:09:00+00:00,332.64300000000014,4.8,12.57,47.84626,-54.09684
2021-05-09 10:19:01+00:00,332.7529,4.8,12.73,47.84626,-54.09684
2021-05-09 10:29:01+00:00,333.7513,4.84,12.73,47.84626,-54.09684
2021-05-09 10:39:01+00:00,333.7263,4.87,12.73,47.84626,-54.09684
2021-05-09 10:49:01+00:00,333.3629,4.9,12.73,47.84626,-54.09684
2021-05-09 10:59:01+00:00,329.55800000000005,4.9,12.73,47.84626,-54.09684
2021-05-09 11:09:01+00:00,333.1547,4.37,12.73,47.84626,-54.09684
2021-05-09 11:19:01+00:00,335.0997,4.2,13.05,47.84626,-54.09684
2021-05-09 11:29:01+00:00,333.1913,4.49,13.05,47.84626,-54.09684
2021-05-09 11:39:01+00:00,332.5029,4.8,13.05,47.84626,-54.09684
2021-05-09 11:49:01+00:00,334.36300000000006,4.8,13.05,47.84626,-54.09684
2021-05-09 11:59:01+00:00,327.413,4.63,13.05,47.84626,-54.09684
2021-05-09 12:09:01+00:00,315.8497,4.96,13.05,47.84626,-54.09684
2021-05-09 12:19:00+00:00,314.1063,5.0,13.68,47.84626,-54.09684
2021-05-09 12:29:00+00:00,318.8098,5.0,13.68,47.84626,-54.09684
2021-05-09 12:39:00+00:00,310.5813,5.0,13.68,47.84626,-54.09684
2021-05-09 12:49:00+00:00,297.188,5.06,13.68,47.84626,-54.09684
2021-05-09 12:59:00+00:00,298.1063,5.0,13.68,47.84626,-54.09684
2021-05-09 13:09:00+00:00,299.998,4.55,13.68,47.84626,-54.09684
2021-05-09 13:19:01+00:00,285.1115,4.4,14.0,47.84626,-54.09684
2021-05-09 13:29:01+00:00,273.5115,4.5,14.0,47.84626,-54.09684
2021-05-09 13:39:01+00:00,275.2381,4.5,14.0,47.84626,-54.09684
2021-05-09 13:49:01+00:00,269.6148,4.5,14.0,47.84626,-54.09684
2021-05-09 13:59:01+00:00,255.0664,4.61,14.0,47.84626,-54.09684
2021-05-09 14:09:01+00:00,249.0114,4.67,14.0,47.84626,-54.09684
2021-05-09 14:19:01+00:00,247.2081,4.48,14.0,47.84626,-54.09684
2021-05-09 14:29:01+00:00,240.098,4.57,14.0,47.84626,-54.09684
2021-05-09 14:39:01+00:00,232.1348,4.71,14.0,47.84626,-54.09684
2021-05-09 14:49:01+00:00,229.6248,4.73,14.0,47.84626,-54.09684
2021-05-09 14:59:01+00:00,226.4098,4.6,14.0,47.84626,-54.09684
2021-05-09 15:09:01+00:00,223.0031,4.7,14.0,47.84626,-54.09684
2021-05-09 15:19:01+00:00,221.5914,4.8,14.32,47.84626,-54.09684
2021-05-09 15:29:01+00:00,220.8998,4.87,14.32,47.84626,-54.09684
2021-05-09 15:39:01+00:00,218.4498,4.96,14.32,47.84626,-54.09684
2021-05-09 15:49:01+00:00,215.5631,5.0,14.32,47.84626,-54.09684
2021-05-09 15:59:01+00:00,212.7714,5.0,14.32,47.84626,-54.09684
2021-05-09 16:09:01+00:00,212.1165,5.0,14.32,47.84626,-54.09684
2021-05-09 16:19:00+00:00,215.3598,5.0,14.08,47.84626,-54.09684
2021-05-09 16:29:00+00:00,213.4081,5.03,14.08,47.84626,-54.09684
2021-05-09 16:39:00+00:00,209.3781,5.07,14.08,47.84626,-54.09684
2021-05-09 16:49:00+00:00,210.1364,5.0,14.08,47.84626,-54.09684
2021-05-09 16:59:00+00:00,212.5198,5.0,14.08,47.84626,-54.09684
2021-05-09 17:09:00+00:00,207.9398,5.0,14.08,47.84626,-54.09684
2021-05-09 17:19:01+00:00,209.9698,5.0,14.24,47.84626,-54.09684
2021-05-09 17:29:01+00:00,219.8014,5.0,14.24,47.84626,-54.09684
2021-05-09 17:39:01+00:00,220.1598,4.99,14.24,47.84626,-54.09684
2021-05-09 17:49:01+00:00,223.6215,5.0,14.24,47.84626,-54.09684
2021-05-09 17:59:01+00:00,235.6348,5.05,14.24,47.84626,-54.09684
2021-05-09 18:09:01+00:00,241.3531,5.09,14.24,47.84626,-54.09684
2021-05-09 18:19:01+00:00,240.3548,5.09,14.08,47.84626,-54.09684
2021-05-09 18:29:01+00:00,244.0464,5.09,14.08,47.84626,-54.09684
2021-05-09 18:39:01+00:00,253.3664,5.09,14.08,47.84626,-54.09684
2021-05-09 18:49:01+00:00,256.0664,5.0,14.08,47.84626,-54.09684
2021-05-09 18:59:01+00:00,253.7898,5.0,14.08,47.84626,-54.09684
2021-05-09 19:09:01+00:00,258.7281,5.0,14.08,47.84626,-54.09684
2021-05-09 19:19:01+00:00,270.8881,5.0,13.76,47.84626,-54.09684
2021-05-09 19:29:01+00:00,275.2397,4.9,13.76,47.84626,-54.09684
2021-05-09 19:39:01+00:00,274.6597,4.9,13.76,47.84626,-54.09684
2021-05-09 19:49:01+00:00,285.6397,4.9,13.76,47.84626,-54.09684
2021-05-09 19:59:01+00:00,293.3297,4.9,13.76,47.84626,-54.09684
2021-05-09 20:09:01+00:00,290.7097,4.9,13.76,47.84626,-54.09684
2021-05-09 20:19:01+00:00,297.3181,4.9,13.84,47.84626,-54.09684
2021-05-09 20:29:01+00:00,306.443,4.9,13.84,47.84626,-54.09684
2021-05-09 20:39:01+00:00,306.4963,4.9,13.84,47.84626,-54.09684
2021-05-09 20:49:01+00:00,310.018,4.9,13.84,47.84626,-54.09684
2021-05-09 20:59:01+00:00,322.0914,4.9,13.84,47.84626,-54.09684
2021-05-09 21:09:01+00:00,329.423,4.9,13.84,47.84626,-54.09684
2021-05-09 21:19:01+00:00,330.0914,4.94,13.6,47.84626,-54.09684
2021-05-09 21:29:01+00:00,338.4679,4.96,13.6,47.84626,-54.09684
2021-05-09 21:39:01+00:00,345.6029,4.97,13.6,47.84626,-54.09684
2021-05-09 21:49:01+00:00,348.4513,4.97,13.6,47.84626,-54.09684
2021-05-09 21:59:01+00:00,350.9579,4.98,13.6,47.84626,-54.09684
2021-05-09 22:09:01+00:00,356.43300000000005,4.97,13.6,47.84626,-54.09684
2021-05-09 22:19:01+00:00,356.4229,4.97,13.29,47.84626,-54.09684
2021-05-09 22:29:01+00:00,353.8663,4.96,13.29,47.84626,-54.09684
2021-05-09 22:39:01+00:00,356.3512,4.96,13.29,47.84626,-54.09684
2021-05-09 22:49:01+00:00,360.2413,4.96,13.29,47.84626,-54.09684
2021-05-09 22:59:01+00:00,354.3563,4.96,13.29,47.84626,-54.09684
2021-05-09 23:09:01+00:00,352.6946,4.96,13.29,47.84626,-54.09684
2021-05-09 23:19:01+00:00,358.4529,4.96,12.97,47.84626,-54.09684
2021-05-09 23:29:01+00:00,357.19800000000015,4.97,12.97,47.84626,-54.09684
2021-05-09 23:39:01+00:00,347.4346,4.97,12.97,47.84626,-54.09684
2021-05-09 23:49:01+00:00,350.2629,4.98,12.97,47.84626,-54.09684
2021-05-09 23:59:01+00:00,350.7296,4.97,12.97,47.84626,-54.09684
